Location: ?????????
(38.4921°N, 22.9787°E)
Time: 03:56:41
(UTC+00:00)

Cosmos 2082 Rocket - Pass Details

Date: 08 December 2025
Orbit: 832 x 852 km, 71.0° (Epoch: 21 January)

Event Time Altitude Azimuth Distance (km) Brightness Sun altitude
Exits shadow 03:49:59 36° 290° (WNW) 1,290 2.6 -19.6°
Maximum altitude 03:50:24 37° 299° (WNW) 1,280 2.6 -19.5°
Drops below altitude 10° 03:55:33 10° 6° (N) 2,447 4.5 -18.5°
Sets 03:58:12 0° 15° (NNE) 3,384 5.3 -18.0°
